NIMBUS 2 DEB, 28621

Orbit data source: Space-Track

NIMBUS 2 DEB, 28621 is space debris in SSO originally from a launch on Sun, 15 May 1966 UTC launched from the Air Force Western Test Range (AFWTR). Debris objects in space refer to the collection of defunct objects orbiting the Earth. Examples of debris include non-operational satellites, rocket bodies, and fragments generated from explosions, collisions, or faulty payload assembly.

Loading next visibility...
Identifier
28621, 1966-040AM
Orbit
SSO
Country
Flag of USUS
Related business
Manufacturer
Unknown
Mission
Spacecraft
Bus & Motor
Unknown
Mass
Unknown
Launch date (UTC)
1966-05-15 (60 years ago)
Launch vehicle
Unknown
Launch site
Air Force Western Test Range (AFWTR)
Object type
Payload
Rocket body
Debris
Shape & HBR
Unknown shape, 0.1 m
Radar Cross Section
Small (<0.1 m²)

Expand to show TLE details & history
Last TLE update: 11 hours ago

TLE from 11 hours ago
0 NIMBUS 2 DEB
1 28621U 66040AM  26150.57203220  .00011307  00000-0  42644-2 0  9994
2 28621 100.2498  22.3980 0025466 279.7446  80.0856 14.31385054714194
Epoch: 2026-05-30T13:43Z
TLE epoch observation values (Epoch: 2026-05-30T13:43:43.582Z)
Latitude
0.00004°
Longitude
-71.61974°
Altitude
786.884 km
Speed
7.462 km/s
True Right ascension
01h 29m 35s
True Declination
0° 00' 00"
Sunlit
Object was in daylight at epoch
Visualization orbit readout
Latitude
Unknown
Longitude
Unknown
Altitude
Unknown
Speed
Unknown
Apparent Right ascension
Unknown
Apparent Declination
Unknown
Sunlit
N/A
Visualization observer readout
Local Sidereal Time
10:36:11
Azimuth
Unknown
Elevation
Unknown
Doppler factor
Unknown
Orbital elements
Apogee altitude
802.569 km
Perigee altitude
766.089 km
Semi-major axis
7,162.466 km
Eccentricity
0.00255
Inclination
100.2498°
RAAN
22.398°
Arg. of periapsis
279.7446°
True anomaly
80.37322°
Mean anomaly
80.0856°
Eccentric anomaly
80.22939°
Mean motion
3.58055 °/min
Orbital period
100.54 mins
BSTAR
0.0042644
Loading maneuver chart data...
Computing Atmospheric mass density...
Loading historical data...
Loading historical data...
Loading historical data...
Loading historical data...
Loading historical data...
Loading historical data...
Loading historical data...

Documentation

Showing up to 5 results
|